This is the latest recevied weather packets stored in our database for station/object KE6LRO. If no packets are shown the sender has not sent any weather packets the latest 1 day(s).
| Time | Temp. | Humidity | Pressure | Rain* | Wind** | Luminosity | Snow |
|---|---|---|---|---|---|---|---|
| 1778035512 | 8.33° C | 58% | 1019.4 hPa | 0 mm | - | 6 W/m² | - |
| 1778035208 | 8.89° C | 56% | 1019.3 hPa | 0 mm | - | 8 W/m² | - |
| 1778034601 | 9.44° C | 50% | 1019.1 hPa | 0 mm | - | 13 W/m² | - |
| 1778034299 | 8.89° C | 51% | 1019.2 hPa | 0 mm | - | 15 W/m² | - |
| 1778033996 | 9.44° C | 51% | 1019.1 hPa | 0 mm | - | 17 W/m² | - |
| 1778033694 | 10° C | 50% | 1018.9 hPa | 0 mm | - | 19 W/m² | - |
| 1778033391 | 10.56° C | 49% | 1019.2 hPa | 0 mm | - | 21 W/m² | - |
| 1778033088 | 10.56° C | 46% | 1018.8 hPa | 0 mm | - | 22 W/m² | - |
| 1778032483 | 11.67° C | 42% | 1018.9 hPa | 0 mm | - | 25 W/m² | - |
| 1778032180 | 11.67° C | 41% | 1018.7 hPa | 0 mm | - | 27 W/m² | - |
| 1778031877 | 12.78° C | 40% | 1018.9 hPa | 0 mm | - | 28 W/m² | - |
| 1778031573 | 13.89° C | 37% | 1018.9 hPa | 0 mm | - | 35 W/m² | - |
| 1778030664 | 13.89° C | 33% | 1018.8 hPa | 0 mm | - | 65 W/m² | - |
| 1778030361 | 14.44° C | 32% | 1018.8 hPa | 0 mm | - | 72 W/m² | - |
| 1778029755 | 14.44° C | 33% | 1018.7 hPa | 0 mm | - | 91 W/m² | - |
| 1778029454 | 15° C | 31% | 1018.7 hPa | 0 mm | - | 103 W/m² | - |
| 1778029150 | 15° C | 32% | 1018.6 hPa | 0 mm | - | 115 W/m² | - |
| 1778028848 | 15° C | 32% | 1018.8 hPa | 0 mm | - | 126 W/m² | - |
| 1778028241 | 15° C | 30% | 1018.7 hPa | 0 mm | - | 152 W/m² | - |
| 1778027633 | 15° C | 31% | 1018.7 hPa | 0 mm | - | 178 W/m² | - |
| 1778027329 | 15.56° C | 31% | 1018.4 hPa | 0 mm | - | 191 W/m² | - |
| 1778024299 | 16.11° C | 29% | 1018.3 hPa | 0 mm | - | 334 W/m² | - |
| 1778023694 | 16.11° C | 30% | 1018.2 hPa | 0 mm | - | 362 W/m² | - |
| 1778020057 | 15.56° C | 31% | 1018.3 hPa | 0 mm | - | 351 W/m² | - |
| 1778019451 | 16.11° C | 30% | 1018.4 hPa | 0 mm | - | 544 W/m² | - |
* Rain latest hour (hover to see other rain measurements)
** Current wind speed in m/s (hover to see current wind gust speed)